Regional Weather Roundup
Issued by NWS Portland, ME

Current Version | Previous Version | Text Only | Print | Product List | Glossary Off
Versions: 1 2 3 4 5 6 7 8 9 10 11 12 13 14 15 16 17 18 19 20 21 22 23 24 25 26 27 28 29 30 31 32 33 34 35 36 37 38 39 40 41 42 43 44 45 46 47 48 49 50
000 ASUS41 KGYX 261005 RWRGYX WEATHER ROUNDUP FOR MAINE AND NEW HAMPSHIRE NATIONAL WEATHER SERVICE GRAY ME 600 AM EDT WED APR 26 2017 MEZ002-005-006-010-012-015-018-020-021-024-026-027-029-261100- MAINE CITY SKY/WX TMP DP RH WIND PRES REMARKS PORTLAND LGT RAIN 46 44 93 VRB6 30.03F FOG SANFORD CLOUDY 44 43 96 NE12 30.01F BAR HARBOR RAIN 45 44 97 E9 30.11F FOG WISCASSET LGT RAIN 49 48 97 CALM 30.07F FOG ROCKLAND LGT RAIN 46 45 96 E9 30.06F FOG FRYEBURG LGT RAIN 44 43 96 VRB6 30.06S FOG LEWISTONAUBURN LGT RAIN 43 42 97 N10 30.05F FOG AUGUSTA LGT RAIN 43 41 93 N8 30.07F FOG WATERVILLE LGT RAIN 45 43 93 N6 30.05S FOG BANGOR LGT RAIN 48 47 96 E10 30.09F GREENVILLE N/A 40 40 100 E9 30.06F MILLINOCKET LGT RAIN 41 41 100 NE5 30.15F HOULTON LGT RAIN 40 40 100 SE3 30.16F PRESQUE ISLE RAIN 40 39 97 S10 30.16F FRENCHVILLE LGT RAIN 38 37 97 SE10 30.12S VSB 1/4 CARIBOU LGT RAIN 42 39 89 S9 30.14F $$ NHZ002-005-008-009-011-012-014-261100- NEW HAMPSHIRE CITY SKY/WX TMP DP RH WIND PRES REMARKS PORTSMOUTH LGT RAIN 46 45 93 NE8 29.96F FOG ROCHESTER CLOUDY 45 42 89 N9 29.98F NASHUA LGT RAIN 46 46 100 N6 29.94F FOG MANCHESTER RAIN 47 44 90 NE14G20 29.93F FOG CONCORD LGT RAIN 46 44 93 NE7 29.96F FOG LACONIA LGT RAIN 44 43 96 NE10 30.00F FOG PLYMOUTH LGT RAIN 46 44 95 CALM 29.99F BERLIN LGT RAIN 43 40 89 CALM 30.03F WHITEFIELD CLOUDY 48 42 80 NE8G20 29.99S JAFFREY LGT RAIN 44 44 100 VRB6 29.92F KEENE LGT RAIN 48 45 89 N10 29.91F LEBANON RAIN 47 46 97 NW3 29.96F FOG MT WASHINGTON LGT RAIN 43 43 100 S46G53 N/A VSB 1/16 $$ VTZ005-007-008-261100- VERMONT CITY SKY/WX TMP DP RH WIND PRES REMARKS ST JOHNSBURY N/A 47 46 97 MISG 29.97F MONTPELIER CLOUDY 45 45 100 CALM 30.01F FOG BURLINGTON LGT RAIN 50 48 93 CALM 29.93F $$ MAZ007-012-024-CTZ003-RIZ002-NYZ038-NYZ072-261100- SOUTHERN NEW ENGLAND AND NY CITY SKY/WX TMP DP RH WIND PRES REMARKS BOSTON LGT RAIN 50 50 100 NE14 29.91S VSB 1 WORCESTER LGT RAIN 44 42 93 NE10G21 29.87S FOG NANTUCKET CLOUDY 53 51 93 E22G30 29.87F FOG PROVIDENCE LGT RAIN 54 54 100 N6 29.85S HARTFORD LGT RAIN 49 48 97 N13 29.86R FOG ALBANY DRIZZLE 50 48 93 N5 29.88F NEW YORK CITY LGT RAIN 54 52 93 NE10 29.75S FOG $$ ANZ081-ANZ082-ANZ150-NHZ014-MEZ023>029-261100- COASTAL MARINE OBSERVATIONS STATION/POSITION TIME TEMP WIND PRES WAVE AIR SEA DIR/SP/G HT/PER (UTC) (F) (DEG/KT/KT) (MB) (FT/S) MOUNT DESERT ROC 1000 43 1017.9F MATINICUS ROCK 0900 44 100/ 26/ 28 1016.4F ISLE OF SHOALS 0900 45 20/ 22/ 24 1014.6F JEFFREYS LEDGE 0906 44 N/A 7/ 7 CASHES LEDGE BUO 0850 47 42 1016.3 6/ 7 GEORGES BANK BUO 0850 51 42 1017.5 8/ 7 $$ .............KEY.............. WCI - WIND CHILL TC - TEMPERATURE IN CELSIUS VSB - VISIBILITY IN MILES HX - HEAT INDEX FAIR- INDICATES FEW OR NO CLOUDS BELOW 12,000 FT, WITH NO SIGNIFICANT WEATHER AND/OR OBSTRUCTIONS TO VISIBILITY.

USA.gov is the U.S. government's official web portal to all federal, state and local government web resources and services.